Location: Alladorf
(49.9620°N, 11.3790°E)
Time: 21:31:00
(UTC+00:00)

ERBS - Pass Details

Date: 29 November 2020
Orbit: 403 x 423 km, 57.0° (Epoch: 24 January)

Event Time Altitude Azimuth Distance (km) Brightness Sun altitude
Exits shadow 06:11:13 - 303° (WNW) 1,659 4.6 -6.1°
Reaches altitude 10° 06:11:42 10° 307° (NW) 1,492 4.4 -6.0°
Maximum altitude 06:14:29 24° 4° (N) 919 3.8 -5.6°
Drops below altitude 10° 06:17:16 10° 60° (ENE) 1,502 5.5 -5.2°
Sets 06:19:38 0° 75° (ENE) 2,371 6.9 -4.9°
